This demonstration page uses our WeatherBlox Daily Observations layout. Learn more.

Left ArrowRight Arrow

34.16533, -84.80231

Hourly Observations for March 23, 2020

Temp ( °F °C ) Dew Point ( °F °C ) Humidity (%) Winds ( mph kmh ) Pressure ( in mb ) Visibility ( mi km ) Precip ( " mm )
12:53 am 00:53 Cloudy 55 12.8 50 10 83 83 E 3 6 30.27 1025 10 16 0.00 0.00
1:30 am 01:30 Cloudy 54 12.2 50 10 87 87 VRB 6 9 30.27 1025 9 14 0.00 0.00
1:53 am 01:53 Cloudy 54 12.2 50 10 87 87 ESE 8 13 30.24 1024 10 16 0.00 0.00
2:53 am 02:53 Cloudy 54 12.2 49 9.4 83 83 E 8 13 30.22 1023 10 16 0.00 0.00
3:53 am 03:53 Cloudy 54 12.2 49 9.4 83 83 ESE 9 15 30.18 1022 10 16 0.00 0.00
4:53 am 04:53 Cloudy 53 11.7 49 9.4 86 86 SE 8 13 30.15 1021 10 16 0.00 0.00
5:53 am 05:53 Cloudy 53 11.7 49 9.4 86 86 VRB 5 7 30.16 1021 9 14 0.00 0.00
6:53 am 06:53 Cloudy with Mist and Fog 53 11.7 50 10 89 89 E 6 9 30.17 1022 4 6 0.00 0.00
7:53 am 07:53 Cloudy with Rain 53 11.7 50 10 89 89 VRB 6 9 30.20 1023 5 8 0.13 3.30
8:10 am 08:10 Cloudy with Rain 53 11.7 50 10 89 89 SE 10 17 30.19 1023 2 3 0.10 2.54
8:17 am 08:17 Cloudy with Rain 52 11.1 50 10 93 93 ESE 7 11 30.21 1023 2 3 0.12 3.05
8:21 am 08:21 Cloudy with Light Rain 53 11.7 50 10 89 89 VRB 6 9 30.21 1023 3 5 0.13 3.30
8:53 am 08:53 Cloudy with Light Rain 53 11.7 50 10 89 89 SE 6 9 30.18 1022 5 8 0.20 5.08
9:06 am 09:06 Cloudy with Heavy Rain 53 11.7 50 10 89 89 ESE 15 24 30.19 1023 2 3 0.10 2.54
9:13 am 09:13 Cloudy with Rain 53 11.7 50 10 89 89 SE 9 15 30.20 1023 2 3 0.12 3.05
9:21 am 09:21 Cloudy with Rain 53 11.7 50 10 89 89 VRB 6 9 30.20 1023 5 8 0.14 3.56
9:44 am 09:44 Cloudy with Light Rain 53 11.7 50 10 89 89 E 8 13 30.20 1023 10 16 0.15 3.81
9:53 am 09:53 Cloudy with Light Rain 53 11.7 51 10.6 93 93 VRB 3 6 30.20 1023 7 11 0.17 4.32
10:32 am 10:32 Cloudy with Light Rain 53 11.7 51 10.6 93 93 VRB 6 9 30.22 1024 7 11 0.10 2.54
10:53 am 10:53 Cloudy with Light Rain 53 11.7 51 10.6 93 93 E 8 13 30.19 1022 7 11 0.12 3.05
11:14 am 11:14 Cloudy with Light Rain 54 12.2 51 10.6 90 90 ESE 8 13 30.21 1023 10 16 0.01 0.25
11:53 am 11:53 Cloudy with Light Rain 54 12.2 51 10.6 90 90 E 5 7 30.19 1022 8 13 0.02 0.51
12:53 pm 12:53 Cloudy 55 12.8 53 11.7 93 93 E 5 7 30.17 1022 10 16 0.04 1.02
1:53 pm 13:53 Cloudy with Light Rain 56 13.3 53 11.7 90 90 E 6 9 30.15 1021 9 14 0.01 0.25
2:53 pm 14:53 Cloudy 56 13.3 54 12.2 93 93 ESE 6 9 30.12 1020 10 16 0.00 0.00
3:53 pm 15:53 Cloudy with Light Rain 57 13.9 54 12.2 90 90 E 5 7 30.10 1019 6 10 0.06 1.52
4:00 pm 16:00 Cloudy with Heavy Rain 57 13.9 55 12.8 93 93 SE 6 9 30.11 1020 2 2 0.09 2.29
4:05 pm 16:05 Cloudy with Heavy Rain 57 13.9 55 12.8 93 93 VRB 3 6 30.12 1020 1 2 0.11 2.79
4:11 pm 16:11 Cloudy with Rain 57 13.9 55 12.8 93 93 VRB 5 7 30.12 1020 3 5 0.12 3.05
4:32 pm 16:32 Cloudy with Light Rain 58 14.4 55 12.8 90 90 VRB 5 7 30.10 1019 9 14 0.15 3.81
4:49 pm 16:49 Cloudy with Light Rain 59 15 55 13 88 88 ESE 3 6 30.09 1019 10 16 0.16 4.06
4:53 pm 16:53 Mostly Cloudy with Light Rain 59 15 56 13.3 90 90 E 6 9 30.07 1018 10 16 0.16 4.06
5:36 pm 17:36 Cloudy with Light Rain 59 15 57 13.9 93 93 E 3 6 30.10 1019 8 13 0.04 1.02
5:51 pm 17:51 Cloudy with Heavy Rain 59 15 55 13 88 88 SSE 9 15 30.09 1019 2 3 0.11 2.79
5:53 pm 17:53 Cloudy with Heavy Rain 59 15 56 13.3 90 90 SE 6 9 30.07 1018 2 3 0.11 2.79
5:55 pm 17:55 Cloudy with Rain 59 15 56 13.3 90 90 ESE 6 9 30.09 1019 2 3 0.00 0.00
5:58 pm 17:58 Cloudy with Light Rain 59 15 56 13.3 90 90 E 5 7 30.09 1019 3 5 0.00 0.00
6:05 pm 18:05 Cloudy with Light Rain 59 15 57 13.9 93 93 ENE 3 6 30.09 1019 4 6 0.01 0.25
6:53 pm 18:53 Cloudy with Light Rain 58 14.4 56 13.3 93 93 ENE 3 6 30.07 1018 3 5 0.08 2.03
7:05 pm 19:05 Cloudy with Light Rain 58 14.4 56 13.3 93 93 NE 6 9 30.10 1019 5 8 0.02 0.51
7:46 pm 19:46 Cloudy with Light Rain 58 14.4 55 12.8 90 90 ENE 3 6 30.11 1020 9 14 0.03 0.76
7:53 pm 19:53 Cloudy with Light Rain 58 14.4 55 12.8 90 90 E 5 7 30.08 1019 10 16 0.03 0.76
8:06 pm 20:06 Cloudy with Light Rain 57 13.9 55 12.8 93 93 E 3 6 30.10 1019 10 16 0.01 0.25
8:26 pm 20:26 Cloudy with Light Rain 57 13.9 55 12.8 93 93 Calm 30.10 1019 9 14 0.03 0.76
8:53 pm 20:53 Cloudy with Light Rain 57 13.9 55 12.8 93 93 ENE 3 6 30.10 1019 9 14 0.04 1.02
9:05 pm 21:05 Cloudy with Rain 57 13.9 54 12.2 90 90 ENE 3 6 30.12 1020 8 13 0.02 0.51
9:18 pm 21:18 Cloudy 57 13.9 54 12.2 90 90 NNE 3 6 30.12 1020 10 16 0.02 0.51
9:53 pm 21:53 Cloudy 56 13.3 54 12.2 93 93 Calm 30.11 1020 10 16 0.02 0.51
10:14 pm 22:14 Cloudy with Light Rain 56 13.3 54 12.2 93 93 Calm 30.12 1020 10 16 0.01 0.25
10:53 pm 22:53 Cloudy 56 13.3 54 12.2 93 93 Calm 30.09 1019 10 16 0.01 0.25
11:32 pm 23:32 Cloudy 56 13.3 53 11.7 90 90 Calm 30.09 1019 9 14 0.00 0.00
11:39 pm 23:39 Cloudy with Mist and Fog 56 13.3 53 11.7 90 90 Calm 30.09 1019 4 6 0.00 0.00
11:53 pm 23:53 Cloudy with Mist and Fog 56 13.3 53 11.7 90 90 Calm 30.08 1019 3 5 0.00 0.00

Powered by AerisWeather